Regional Weather Roundup
Issued by NWS

Home | Current Version | Previous Version | Graphics & Text | Print | Product List | Glossary On
Versions: 1 2 3 4 5 6 7 8 9 10 11 12 13 14 15 16 17 18 19 20 21 22 23 24 25 26 27
000
ASUS45 KCYS 200510
RWRWY

WYOMING REGIONAL WEATHER ROUNDUP
NATIONAL WEATHER SERVICE CHEYENNE WY
1100 PM MDT SAT MAY 19 2018

NOTE:  "FAIR" INDICATES FEW OR NO CLOUDS BELOW 12,000 FEET
WITH NO SIGNIFICANT WEATHER AND/OR OBSTRUCTIONS TO VISIBILITY.

WYZ001-200600-
YELLOWSTONE NATIONAL PARK

CITY           SKY/WX    TMP DP  RH WIND       PRES   REMARKS
LK YELLOWSTONE   N/A     34  30  85 NW3       30.23R
W YELLOWSTONE  NOT AVBL

$$
WYZ002>013-054>058-071-098>099-200600-
NORTHERN WYOMING

CITY           SKY/WX    TMP DP  RH WIND       PRES   REMARKS
JACKSON        CLOUDY    49  38  65 N8        30.17R
CODY           MOCLDY    45  39  79 CALM      30.19S
GREYBULL       FAIR      50  43  77 SE3       30.16R
WORLAND        CLOUDY    50  43  77 SE12      30.17R
SHERIDAN       FAIR      49  40  71 E6        30.18S
BUFFALO        FAIR      45  38  76 S10       30.22S
GILLETTE       CLOUDY    48  44  86 S14       30.24R
NEWCASTLE      FAIR      39  39 100 SE5       30.28S

$$
WYZ014>020-022>026-101>103-200600-
CENTRAL WYOMING

CITY           SKY/WX    TMP DP  RH WIND       PRES   REMARKS
BIG PINEY      CLOUDY    47  37  68 S9        30.21R
PINEDALE       FAIR      41  36  81 CALM      30.21R
DUBOIS         CLOUDY    41  36  81 SE8       30.23S
LANDER         CLOUDY    46  42  86 N3        30.20S
RIVERTON       CLOUDY    43  40  89 NE6       30.22R
CASPER         CLOUDY    45  44  97 E12       30.23S
DOUGLAS        CLOUDY    42  41  96 SE8       30.27F

$$
WYZ021-027>030-104>119-200600-
SOUTHERN WYOMING

CITY           SKY/WX    TMP DP  RH WIND       PRES   REMARKS
EVANSTON       FAIR      49  41  74 E12       30.13R
KEMMERER       MOCLDY    43  36  75 NE15G21   30.19R
FORT BRIDGER   FAIR      48  40  73 E10       30.19R
ROCK SPRINGS   FAIR      44  37  76 NE10      30.19R
DIXON          FAIR      43  37  79 NE3       30.18R
RAWLINS        FAIR      40  36  86 NE17G24   30.21R WCI  31
SARATOGA       FAIR      41  34  75 SE10      30.20S
LARAMIE        FAIR      36  35  96 SE12      30.24R WCI  28
CHEYENNE       CLOUDY    38  38 100 E8        30.27R WCI  32
TORRINGTON     CLOUDY    42  41  96 CALM      30.28S
PINE BLUFFS    CLOUDY    37  37 100 NE6       30.29S WCI  33

$$




USA.gov is the U.S. government's official web portal to all federal, state and local government web resources and services.